Date String (YYYY-MM-DD hh:mm:ss) UTC,Instrument flags,Ambient pressure (hPa),Sample flow (lpm),Bypass flow (lpm),Sample temperature (°C),Ambient temperature (°C),ASC tube jacket temperature (°C),LED temperature (°C),Box temperature (°C),Sample RH (%),Span deviation,Mass concentration (μg/m³),Mass concentration (μg/m³),Mass concentration (μg/m³)
DateTimeUTC,F1_M11,P_M11,Q1_M11,Q2_M11,T1_M11,T2_M11,T3_M11,T4_M11,T5_M11,U1_M11,ZSPAN_M11,X0_M11,X2_M11,X1_M11
2023-05-28 18:00:00,,0828.6,5.00,0.00,29.4,28.1,00.0,37.6,31.1,23.3,0000.0,0010.37,0004.40,0003.43
2023-05-28 18:01:00,,0828.6,4.98,0.00,29.4,27.6,00.0,37.6,31.1,22.9,0000.0,0010.08,0004.42,0003.42
2023-05-28 18:02:00,,0828.6,5.00,0.00,29.4,26.2,00.0,37.6,30.9,24.2,0000.0,0009.91,0004.41,0003.42
2023-05-28 18:03:00,,0828.6,5.00,0.00,29.3,25.9,00.0,37.5,30.8,24.8,0000.0,0009.55,0004.41,0003.41
2023-05-28 18:04:00,,0828.6,5.01,0.00,29.3,26.0,00.0,37.5,30.7,24.6,0000.0,0009.43,0004.40,0003.42
2023-05-28 18:05:00,,0828.6,5.00,0.00,29.2,26.3,00.0,37.5,30.7,23.6,0000.0,0009.27,0004.36,0003.40
2023-05-28 18:06:00,,0828.6,5.00,0.00,29.2,26.6,00.0,37.5,30.8,23.3,0000.0,0009.17,0004.33,0003.38
2023-05-28 18:07:00,,0828.6,5.00,0.00,29.2,26.9,00.0,37.5,30.8,23.7,0000.0,0009.44,0004.32,0003.37
2023-05-28 18:08:00,,0828.6,5.01,0.00,29.2,27.1,00.0,37.5,30.9,24.3,0000.0,0009.54,0004.29,0003.35
2023-05-28 18:09:00,,0828.6,5.00,0.00,29.2,27.3,00.0,37.5,30.9,23.8,0000.0,0009.68,0004.26,0003.36
2023-05-28 18:10:00,,0828.6,5.00,0.00,29.3,27.5,00.0,37.5,30.9,23.7,0000.0,0009.45,0004.27,0003.36
2023-05-28 18:11:00,,0828.6,5.00,0.00,29.3,27.6,00.0,37.6,31.0,23.6,0000.0,0009.41,0004.29,0003.36
2023-05-28 18:12:00,,0828.6,5.00,0.00,29.3,27.8,00.0,37.6,31.0,23.9,0000.0,0009.15,0004.29,0003.37
2023-05-28 18:13:00,,0828.6,5.00,0.00,29.3,27.9,00.0,37.6,31.0,24.3,0000.0,0009.74,0004.25,0003.37
2023-05-28 18:14:00,,0828.6,5.01,0.00,29.3,28.0,00.0,37.6,31.1,24.0,0000.0,0009.75,0004.26,0003.37
2023-05-28 18:15:00,,0828.6,5.00,0.00,29.4,28.0,00.0,37.6,31.1,23.5,0000.0,0010.31,0004.28,0003.36
2023-05-28 18:16:00,,0828.6,4.99,0.00,29.4,27.5,00.0,37.6,31.1,23.0,0000.0,0010.34,0004.25,0003.35
2023-05-28 18:17:00,,0828.7,4.99,0.00,29.4,26.1,00.0,37.5,30.9,24.0,0000.0,0010.66,0004.24,0003.36
2023-05-28 18:18:00,,0828.6,5.01,0.00,29.3,25.9,00.0,37.5,30.8,24.6,0000.0,0010.54,0004.25,0003.39
2023-05-28 18:19:00,,0828.6,5.01,0.00,29.3,26.1,00.0,37.5,30.7,24.3,0000.0,0010.41,0004.30,0003.41
2023-05-28 18:20:00,,0828.6,5.00,0.00,29.2,26.4,00.0,37.5,30.7,24.7,0000.0,0009.98,0004.33,0003.42
2023-05-28 18:21:00,,0828.6,5.00,0.00,29.2,26.6,00.0,37.5,30.8,24.8,0000.0,0010.19,0004.35,0003.42
2023-05-28 18:22:00,,0828.6,5.01,0.00,29.2,26.9,00.0,37.5,30.8,25.1,0000.0,0010.37,0004.36,0003.44
2023-05-28 18:23:00,,0828.6,4.99,0.00,29.2,27.2,00.0,37.5,30.9,25.4,0000.0,0010.45,0004.38,0003.45
2023-05-28 18:24:00,,0828.6,4.99,0.00,29.2,27.4,00.0,37.5,30.9,25.3,0000.0,0010.02,0004.43,0003.47
2023-05-28 18:25:00,,0828.7,4.99,0.00,29.3,27.5,00.0,37.6,31.0,24.5,0000.0,0010.18,0004.43,0003.48
2023-05-28 18:26:00,,0828.7,5.00,0.00,29.3,27.7,00.0,37.6,31.0,24.5,0000.0,0009.52,0004.39,0003.48
2023-05-28 18:27:00,,0828.7,5.00,0.00,29.3,27.8,00.0,37.6,31.0,24.2,0000.0,0010.19,0004.42,0003.50
2023-05-28 18:28:00,,0828.8,5.00,0.00,29.3,27.9,00.0,37.6,31.1,24.5,0000.0,0010.05,0004.50,0003.51
2023-05-28 18:29:00,,0828.8,5.00,0.00,29.4,28.0,00.0,37.6,31.1,24.0,0000.0,0009.94,0004.48,0003.49
2023-05-28 18:30:00,,0828.8,5.00,0.00,29.4,28.1,00.0,37.6,31.1,22.6,0000.0,0009.96,0004.46,0003.49
2023-05-28 18:31:00,,0828.8,4.99,0.00,29.4,27.5,00.0,37.6,31.1,21.5,0000.0,0010.19,0004.45,0003.48
2023-05-28 18:32:00,,0828.8,4.99,0.00,29.4,25.8,00.0,37.5,30.8,20.8,0000.0,0010.20,0004.41,0003.46
2023-05-28 18:33:00,,0828.8,5.01,0.00,29.3,25.0,00.0,37.4,30.7,22.2,0000.0,0010.42,0004.42,0003.45
2023-05-28 18:34:00,,0828.7,5.00,0.00,29.2,25.1,00.0,37.4,30.6,22.3,0000.0,0010.51,0004.43,0003.45
2023-05-28 18:35:00,,0828.7,4.99,0.00,29.1,25.4,00.0,37.4,30.6,22.2,0000.0,0010.37,0004.43,0003.46
2023-05-28 18:36:00,,0828.7,5.00,0.00,29.1,25.8,00.0,37.4,30.6,23.2,0000.0,0010.23,0004.42,0003.47
2023-05-28 18:37:00,,0828.7,5.01,0.00,29.1,26.2,00.0,37.4,30.6,25.5,0000.0,0010.36,0004.47,0003.50
2023-05-28 18:38:00,,0828.6,5.00,0.00,29.1,26.5,00.0,37.4,30.7,26.8,0000.0,0009.68,0004.52,0003.54
2023-05-28 18:39:00,,0828.6,4.99,0.00,29.1,26.8,00.0,37.4,30.7,27.3,0000.0,0009.62,0004.52,0003.58
2023-05-28 18:40:00,,0828.6,5.00,0.00,29.1,27.1,00.0,37.4,30.8,26.9,0000.0,0009.83,0004.61,0003.65
2023-05-28 18:41:00,,0828.6,5.00,0.00,29.1,27.3,00.0,37.4,30.8,27.5,0000.0,0010.06,0004.70,0003.72
2023-05-28 18:42:00,,0828.6,5.00,0.00,29.1,27.4,00.0,37.5,30.8,27.1,0000.0,0009.97,0004.74,0003.76
2023-05-28 18:43:00,,0828.6,4.99,0.00,29.2,27.6,00.0,37.5,30.9,27.6,0000.0,0010.24,0004.81,0003.83
2023-05-28 18:44:00,,0828.6,4.99,0.00,29.2,27.7,00.0,37.5,30.9,27.0,0000.0,0009.64,0004.81,0003.89
2023-05-28 18:45:00,,0828.6,5.01,0.00,29.2,27.8,00.0,37.5,31.0,26.2,0000.0,0009.59,0004.83,0003.96
2023-05-28 18:46:00,,0828.6,5.01,0.00,29.3,28.0,00.0,37.5,31.0,26.1,0000.0,0009.56,0004.90,0004.01
2023-05-28 18:47:00,,0828.6,5.01,0.00,29.3,28.0,00.0,37.5,31.1,26.3,0000.0,0009.69,0004.98,0004.05
2023-05-28 18:48:00,,0828.6,5.00,0.00,29.3,28.1,00.0,37.6,31.1,25.2,0000.0,0009.73,0005.00,0004.08
2023-05-28 18:49:00,,0828.6,4.99,0.00,29.4,28.2,00.0,37.6,31.1,24.9,0000.0,0009.83,0005.01,0004.08
2023-05-28 18:50:00,,0828.6,5.00,0.00,29.4,28.2,00.0,37.6,31.2,25.5,0000.0,0009.72,0005.01,0004.07
2023-05-28 18:51:00,,0828.6,4.99,0.00,29.4,27.1,00.0,37.6,31.0,26.2,0000.0,0009.43,0004.93,0004.06
2023-05-28 18:52:00,,0828.6,5.00,0.00,29.3,25.4,00.0,37.5,30.7,27.6,0000.2,0009.39,0004.94,0004.08
2023-05-28 18:53:00,,0828.6,5.00,0.00,29.3,24.9,00.0,37.4,30.6,27.1,0001.3,0009.33,0005.01,0004.14
2023-05-28 18:54:00,,0828.6,5.01,0.00,29.2,25.1,00.0,37.4,30.5,27.8,0001.6,0009.39,0005.13,0004.19
2023-05-28 18:55:00,,0828.6,5.01,0.00,29.1,25.5,00.0,37.4,30.5,27.0,0001.5,0009.46,0005.21,0004.24
2023-05-28 18:56:00,,0828.6,5.00,0.00,29.1,25.9,00.0,37.4,30.6,25.9,0001.7,0009.54,0005.27,0004.27
2023-05-28 18:57:00,,0828.6,4.99,0.00,29.1,26.2,00.0,37.4,30.6,25.9,0002.0,0009.56,0005.30,0004.32
2023-05-28 18:58:00,,0828.6,5.01,0.00,29.1,26.5,00.0,37.4,30.7,26.1,0002.0,0009.76,0005.36,0004.38
2023-05-28 18:59:00,,0828.6,5.00,0.00,29.1,26.8,00.0,37.4,30.7,25.8,0002.0,0010.12,0005.46,0004.43
